Location: Rotheul
(50.2849°N, 11.2349°E)
Time: 06:58:55
(UTC+01:00)

Envisat - Pass Details

Date: 22 October 2019
Orbit: 764 x 766 km, 98.1° (Epoch: 14 November)

Event Time Altitude Azimuth Distance (km) Brightness Sun altitude
Rises 19:55:58 0° 189° (S) 3,221 6.3 -17.5°
Reaches altitude 10° 19:58:26 10° 198° (SSW) 2,299 5.6 -17.9°
Maximum altitude 20:03:05 36° 264° (W) 1,209 4.6 -18.7°
Drops below altitude 10° 20:07:46 10° 331° (NNW) 2,314 5.9 -19.4°
Sets 20:10:16 0° 340° (NNW) 3,245 6.6 -19.8°
